Content
SEND FEEDBACK

Daily
Averages
Monthly
Summary
United States of America

WILMINGTON, NORTH CAROLINA


Home > North America > United States > North Carolina
Elevation: 72 feet     Latitude: 34 16N     Longitude: 077 54W

WEATHER
 
SELECT A DAY
Number of Records: 208,961;   Date Range: 1/1/95 - 8/28/14
 
SHARE

PRINT THIS DATA

[ ← Previous Day ]
WEATHER ALMANAC - NOVEMBER 5, 2013
[ Next Day → ]
[ °C ]   °F
Weather ElementAverageHighLow
Temperature58.8 °F75 °F (1:53 pm)46 °F (1:53 am)
Dewpoint48.9 °F55 °F (12:53 pm)39.9 °F (1:53 am)
Humidity71.2 %83 % (5:53 am)48 % (2:53 pm)
Barometer30.41 in30.45 in (9:53 am)30.37 in (11:53 pm)
Wind Speed10.4 mph16.1 mph (1:53 pm)
Wind Gust24.2 mph (2:53 pm)
Weather ElementAverage
Visibility9.7 mi
Wind DirectionNNE (36.5 °)

Weather ElementTotal
Precipitation---
Heating Degree Days4.5 (Base 65)
Growing Degree Days10.5 (Base 50)
Averaged from 26 records on November 5, 2013
WEATHER CONDITIONS BREAKOUT
WIND DIRECTION BREAKOUT
WEATHER BY HOUR - NOVEMBER 5, 2013
[ °C ]   °F
Local TimeTemperatureDewpointHumidityBarometerVisibilityWind DirectionWind SpeedGust SpeedPrecipitationEventsConditions
1:53 AM46.0 °F39.9 °F79 %30.43 in10.0 miNNE (30°)10.4 mphOvercast
2:53 AM48.0 °F41.0 °F77 %30.42 in10.0 miNE (40°)11.5 mphOvercast
3:53 AM48.9 °F42.1 °F77 %30.42 in10.0 miNNE (20°)8.1 mphOvercast
4:53 AM50.0 °F43.0 °F77 %30.42 in10.0 miNNE (30°)11.5 mphOvercast
5:25 AM50.0 °F44.6 °F82 %30.41 in7.0 miNNE (20°)12.7 mph0.00 inRainLight Rain
5:53 AM50.0 °F45.0 °F83 %30.42 in6.0 miNNE (20°)10.4 mph0.00 inRainLight Rain
6:40 AM51.8 °F46.4 °F82 %30.42 in10.0 miNNE (20°)10.4 mph0.00 inOvercast
6:49 AM51.8 °F46.4 °F82 %30.42 in10.0 miNNE (20°)10.4 mph0.00 inOvercast
6:53 AM51.1 °F46.0 °F83 %30.42 in10.0 miNorth (10°)9.2 mph0.00 inOvercast
7:53 AM52.0 °F46.9 °F83 %30.44 in10.0 miNNE (20°)9.2 mph0.00 inOvercast
8:53 AM54.0 °F48.0 °F80 %30.44 in10.0 miNNE (20°)8.1 mphOvercast
9:53 AM61.0 °F50.0 °F67 %30.45 in10.0 miNNE (20°)11.5 mph19.6 mphOvercast
10:53 AM66.0 °F51.1 °F59 %30.43 in10.0 miNNE (20°)11.5 mphMostly Cloudy
11:53 AM72.0 °F54.0 °F53 %30.40 in10.0 miNNE (20°)11.5 mphPartly Cloudy
12:53 PM73.0 °F55.0 °F53 %30.38 in10.0 miENE (60°)15.0 mph23.0 mphOvercast
1:53 PM75.0 °F55.0 °F50 %30.38 in10.0 miENE (60°)16.1 mph23.0 mphPartly Cloudy
2:53 PM73.9 °F53.1 °F48 %30.38 in10.0 miENE (70°)10.4 mph24.2 mphClear
3:53 PM71.1 °F52.0 °F51 %30.38 in10.0 miENE (70°)15.0 mphMostly Cloudy
4:53 PM69.1 °F54.0 °F58 %30.38 in10.0 miENE (70°)11.5 mph20.7 mphOvercast
5:53 PM66.0 °F54.0 °F65 %30.39 in10.0 miENE (60°)6.9 mphMostly Cloudy
6:53 PM62.1 °F53.1 °F72 %30.40 in10.0 miNE (40°)9.2 mphClear
7:53 PM62.1 °F52.0 °F70 %30.40 in10.0 miNE (50°)11.5 mphClear
8:53 PM59.0 °F50.0 °F72 %30.40 in10.0 miNE (40°)8.1 mphClear
9:53 PM55.0 °F50.0 °F83 %30.40 in10.0 miNE (40°)6.9 mphClear
10:53 PM55.0 °F50.0 °F83 %30.38 in10.0 miNE (40°)6.9 mphClear
11:53 PM54.0 °F48.9 °F83 %30.37 in10.0 miNE (40°)5.8 mphClear
Hourly data recorded from KILM, located miles away from Wilmington, North Carolina







STORIES FROM OUR PARTNERS